Regional Weather Roundup
Issued by NWS Albany, NY

Home | Current Version | Previous Version | Text Only | Print | Product List | Glossary On
Versions: 1 2 3 4 5 6 7 8 9 10 11 12 13 14 15 16 17 18 19 20 21 22 23 24 25 26 27 28 29 30 31 32 33 34 35 36 37 38 39 40 41 42 43 44 45 46 47 48 49 50
000
ASUS41 KALY 291310
RWRALY

NEW YORK STATE HOURLY WEATHER ROUNDUP
NATIONAL WEATHER SERVICE ALBANY NY
900 AM EDT FRI AUG 29 2014

NOTE: "FAIR" INDICATES FEW OR NO CLOUDS BELOW 12,000 FEET WITH NO
SIGNIFICANT WEATHER AND/OR NO OBSTRUCTIONS TO VISIBILITY.

NYZ032-033-038>043-046>054-057>066-NYZ062>081-291400-
EAST


CITY           SKY/WX    TMP DP  RH WIND       PRES   REMARKS
ALBANY         MOSUNNY   63  54  72 N6        30.20R
GLENS FALLS    SUNNY     63  52  67 N3        30.20R
POUGHKEEPSIE   SUNNY     62  54  74 CALM      30.19R
NEWBURGH       SUNNY     59  54  82 W5        30.21R
MONTGOMERY     SUNNY     62  52  69 CALM      30.20R
WHITE PLAINS   MOSUNNY   66  51  58 N10       30.18R
ISLIP          MOSUNNY   69  52  54 N10       30.15R
NEW YORK CITY  PTSUNNY   67  52  58 N9        30.18R
CENTRAL PARK   MOSUNNY   65  50  58 CALM      30.21R
$$

NYZ005>009-017-018-044>046-055-056-291400-
CENTRAL


CITY           SKY/WX    TMP DP  RH WIND       PRES   REMARKS
FULTON         SUNNY     62  54  74 VRB3      30.22R
SYRACUSE       MOSUNNY   62  55  77 SW3       30.21S
ROME           SUNNY     56  52  86 CALM      30.23R
ELMIRA         SUNNY     55  52  89 S5        30.23R
BINGHAMTON     SUNNY     58  52  80 CALM      30.22R
MONTICELLO     SUNNY     57  52  82 NW7       30.22S
$$

NYZ026>034-041>043-291400-
NORTH


CITY           SKY/WX    TMP DP  RH WIND       PRES   REMARKS
WATERTOWN      SUNNY     62  53  72 CALM      30.21R
FORT DRUM      NOT AVBL
MASSENA        SUNNY     59  55  87 SE5       30.21R
SARANAC LAKE   SUNNY     56  51  84 SE3       30.20R
PLATTSBURGH    CLOUDY    62  54  74 W3        30.20R
$$

NYZ001>004-010>016-019>021-291400-
WEST


CITY           SKY/WX    TMP DP  RH WIND       PRES   REMARKS
NIAGARA FALLS  CLOUDY    60  52  74 CALM      30.20R
BUFFALO        CLOUDY    58  50  75 S5        30.20R
DUNKIRK        CLOUDY    63  51  65 S6        30.20R
JAMESTOWN      PTSUNNY   52  48  87 S3        30.23R
WELLSVILLE     PTSUNNY   52  49  89 CALM      30.25R
ROCHESTER      PTSUNNY   58  52  80 CALM      30.22R
PENN YAN       SUNNY     59  53  80 S3        30.22S
$$

             KEY
       WCI = WIND CHILL INDEX
       VSB = VISIBILITY
       HX  = HEAT INDEX
$$



USA.gov is the U.S. government's official web portal to all federal, state and local government web resources and services.